Weather History for Big Delta, AK

Change the Weather History Date:

Friday, December 7, 2012

  Actual Average Record
Temperature  
Mean Temperature -20 °F -  
Max Temperature -7 °F 6 °F 42 °F (2005)
Min Temperature -33 °F -1 °F -33 °F (2012)
Degree Days  
Heating Degree Days 85    
Moisture  
Dew Point -27 °F    
Average Humidity 72    
Maximum Humidity 82    
Minimum Humidity 54    
Precipitation  
Precipitation 0.00 in - - ()
Sea Level Pressure  
Sea Level Pressure 30.26 in    
Wind  
Wind Speed 4 mph (SSE)    
Max Wind Speed 26 mph    
Max Gust Speed 32 mph    
Visibility 10 miles    
Events      
Averages and records for this station are not official NWS values.
T = Trace of Precipitation, MM = Missing Value Source: NWS Daily Summary

Daily Weather History Graph

Daily Weather History Graph

Search for Another Location

Airport:

Trip Planner

Search our weather history database for the weather conditions in past years. The results will help you decide how hot, cold, wet, or windy it might be!

Date:

Astronomy

Dec. 07, 2012 Rise Set
Actual Time 10:15 AM AKST 2:53 PM AKST
Civil Twilight 9:01 AM AKST 4:07 PM AKST
Nautical Twilight 7:54 AM AKST 5:14 PM AKST
Astronomical Twilight 6:56 AM AKST 6:12 PM AKST
Moon 1:33 AM AKST (12/7) 12:55 PM AKST (12/7)
Length of Visible Light 7h 05m
Length of Day
4h 37m
Last Quarter, 37% of the Moon is Illuminated
Dec 7
Last Quarter
Dec 12
New
Dec 19
First Quarter
Dec 28
Full
Jan 4
Last Quarter

Hourly Weather History & Observations

Time (AKST) Temp. Windchill Dew Point Humidity Pressure Visibility Wind Dir Wind Speed Gust Speed Precip Events Conditions
12:53 AM -27.9 °F -39.8 °F -33.0 °F 77% 30.25 in 10.0 mi SSW 3.5 mph - N/A   Clear
1:53 AM -27.9 °F -39.8 °F -34.1 °F 73% 30.25 in 10.0 mi SW 3.5 mph - N/A   Clear
2:53 AM -31.0 °F - - N/A% 30.26 in 10.0 mi Calm Calm - N/A   Clear
3:53 AM -29.9 °F - - N/A% 30.25 in 10.0 mi Calm Calm - N/A   Clear
4:53 AM -29.0 °F - -36.9 °F 66% 30.26 in 10.0 mi Calm Calm - N/A   Clear
5:53 AM -27.9 °F -39.8 °F -34.1 °F 73% 30.27 in 10.0 mi South 3.5 mph - N/A   Clear
6:53 AM -29.0 °F - -36.0 °F 69% 30.27 in 10.0 mi Calm Calm - N/A   Partly Cloudy
7:53 AM -29.0 °F -41.0 °F -34.1 °F 77% 30.27 in 10.0 mi South 3.5 mph - N/A   Partly Cloudy
8:53 AM -29.0 °F -41.0 °F -34.1 °F 77% 30.27 in 10.0 mi South 3.5 mph - N/A   Scattered Clouds
9:53 AM -27.9 °F - -33.0 °F 77% 30.27 in 10.0 mi Calm Calm - N/A   Partly Cloudy
10:53 AM -29.9 °F - - N/A% 30.29 in 10.0 mi Calm Calm - N/A   Partly Cloudy
11:53 AM -27.9 °F - -33.0 °F 77% 30.29 in 10.0 mi Calm Calm - N/A   Partly Cloudy
12:53 PM -23.1 °F - -29.0 °F 74% 30.28 in 10.0 mi Calm Calm - N/A   Partly Cloudy
1:53 PM -23.1 °F -34.2 °F -27.9 °F 78% 30.28 in 10.0 mi West 3.5 mph - N/A   Partly Cloudy
2:53 PM -25.1 °F - -29.0 °F 82% 30.28 in 10.0 mi Calm Calm - N/A   Partly Cloudy
3:53 PM -24.0 °F - -27.9 °F 82% 30.27 in 10.0 mi Calm Calm - N/A   Partly Cloudy
4:53 PM -24.0 °F -35.2 °F -29.9 °F 74% 30.27 in 10.0 mi SSW 3.5 mph - N/A   Partly Cloudy
5:53 PM -24.0 °F - -29.9 °F 74% 30.26 in 10.0 mi Calm Calm - N/A   Partly Cloudy
6:53 PM -9.0 °F -32.4 °F -15.0 °F 75% 30.21 in 10.0 mi ESE 17.3 mph - N/A   Partly Cloudy
7:53 PM -8.0 °F -31.0 °F -15.0 °F 71% 30.22 in 10.0 mi ESE 17.3 mph - N/A   Partly Cloudy
8:53 PM -7.1 °F -34.1 °F -15.0 °F 68% 30.22 in 10.0 mi ESE 26.5 mph 29.9 mph N/A   Partly Cloudy
9:53 PM -7.1 °F -32.1 °F -15.0 °F 68% 30.21 in 10.0 mi ESE 21.9 mph 29.9 mph N/A   Clear
10:53 PM -7.1 °F -31.0 °F -15.0 °F 68% 30.22 in 10.0 mi ESE 19.6 mph - N/A   Clear
11:53 PM -7.1 °F -32.1 °F -15.0 °F 68% 30.23 in 10.0 mi ESE 21.9 mph 32.2 mph N/A   Clear